www.pogodaiklimat.ru

Погода и климат >> Архив погоды >> КНДР >> Канге


ПОГОДА в Канге

  • Прогноз погоды в Канге
  • Монитор погоды в Канге

АРХИВ ПОГОДЫ в Канге

Время (UTC), дата Ветер
(напр.,м/с)
 
Видим.   Явления Облачность Т
(С)
Тd
(С)
f
(%)
Тe
(С)
Тes
(С)
Комфортность P
(гПа)
Po
(гПа)
Тmin
(С)
Tmax
(С)
R
(мм)
R24
(мм)
S
(см)
12 18.06 штиль 0 15 км 6/6 600 м
[Sc diur, vesp]
+17.0 +14.6 86 +17 +17 1008.4 972.4 +22.4 0.5
15 18.06 штиль 0 15 км 5/5 600 м
[Sc diur, vesp]
+16.0 +13.9 87 +16 +16 1008.8 972.8
18 18.06 штиль 0 20 км 3/3 600 м
[Sc diur, vesp]
+14.8 +12.6 87 +14 +14 1008.4 972.4
21 18.06 штиль 0 15 км 10/0 1500 м
[Ac trans]
+15.0 +13.0 88 +15 +15 1009.0 973.0
00 19.06 штиль 0 15 км 10/0 1500 м
[Ac trans]
+15.9 +13.6 86 +16 +21 1009.0 973.0 +13.8
03 19.06 штиль 0 20 км 3/3 600 м
[Sc diur, vesp]
+20.0 +15.1 73 +22 +41 комфорт 1007.3 973.1
06 19.06 З 3 20 км ясно +26.5 +18.9 63 +32 +44 очень
душно
1005.4 969.4
09 19.06 штиль 0 20 км ясно +27.8 +16.6 51 +31 +35 душно 1002.8 967.1
12 19.06 штиль 0 20 км ясно +22.0 +14.9 64 +25 +25 комфорт 1004.2 968.4 +29.5
15 19.06 штиль 0 20 км 6/6 600 м
[Sc diur, vesp]
+18.6 +14.5 77 +19 +19 1006.1 970.3
18 19.06 штиль 0 20 км 6/6 600 м
[Sc diur, vesp]
+17.2 +14.4 84 +17 +17 1005.9 970.0
21 19.06 штиль 0 15 км 6/6 600 м
[Sc diur, vesp]
+16.6 +14.1 85 +16 +17 1007.0 971.1
00 20.06 штиль 0 20 км 8/0 1500 м
[Ac trans]
+20.8 +15.6 72 +24 +31 комфорт 1006.3 970.4 +16.2
03 20.06 штиль 0 20 км 4/4 600 м
[Sc diur, vesp]
+25.2 +18.4 66 +30 +46 душно 1004.5 968.6
06 20.06 СЗ 2 20 км 6/6 600 м
[Sc diur, vesp]
+28.8 +20.1 59 +35 +41 очень
душно
1003.2 967.4
09 20.06 С 5 20 км 10/10 600 м
[Sc diur, vesp]
+23.6 +16.8 66 +27 +27 жарко 1003.9 968.1
12 20.06 штиль 0 10 км гроза, ливневой дождь 10/10 600 м
[Cb cap]
+19.1 +17.5 90 +21 +21 комфорт 1005.8 970.0 +29.3 2
15 20.06 штиль 0 10 км ливневой дождь {гроза} 10/10 600 м
[Cb cap]
+18.0 +16.3 90 +18 +18 1007.1 971.2 3
18 20.06 штиль 0 15 км 10/10 600 м
[Sc diur, vesp]
+17.6 +15.7 89 +18 +18 1006.8 970.9 3
21 20.06 штиль 0 15 км 10/10 600 м
[Sc diur, vesp]
+17.5 +14.9 85 +17 +17 1007.0 971.1
00 21.06 штиль 0 20 км 8/8 600 м
[Sc diur, vesp]
+19.4 +14.6 74 +21 +24 комфорт 1007.4 971.4 +16.4 3
03 21.06 штиль 0 20 км 6/6 600 м
[Sc diur, vesp]
+22.7 +14.6 60 +26 +37 жарко 1006.6 970.7
06 21.06 штиль 0 20 км 4/4 600 м
[Sc diur, vesp]
+25.0 +15.2 55 +28 +40 жарко 1005.3 969.3
09 21.06 штиль 0 20 км ясно +26.0 +14.9 50 +29 +33 душно 1005.9 970.0
12 21.06 штиль 0 20 км ясно +22.0 +15.1 65 +26 +26 душно 1007.5 971.6 +28.0
15 21.06 штиль 0 20 км ясно +16.7 +13.7 82 +17 +17 1008.8 972.8
18 21.06 штиль 0 20 км ясно +14.0 +11.7 86 +14 +14 1009.0 973.0
21 21.06 штиль 0 20 км ясно +13.0 +10.5 85 +13 +13 1009.8 973.8
00 22.06 штиль 0 20 км ясно +17.7 +12.1 70 +18 +31 опасность
простуды
1009.3 973.3 +12.6
03 22.06 штиль 0 20 км 4/4 600 м
[Sc diur, vesp]
+24.0 +15.7 60 +27 +43 жарко 1007.5 971.5
06 22.06 штиль 0 20 км 4/4 600 м
[Sc diur, vesp]
+27.2 +17.3 55 +31 +43 душно 1006.0 970.1
09 22.06 штиль 0 20 км 5/5 600 м
[Sc diur, vesp]
+26.4 +16.6 55 +30 +32 душно 1005.4 969.5
12 22.06 штиль 0 15 км 9/9 600 м
[Sc diur, vesp]
+21.8 +15.8 69 +25 +25 комфорт 1008.1 972.2 +29.5
15 22.06 штиль 0 20 км ясно +17.8 +14.5 81 +18 +18 1009.2 973.2
18 22.06 штиль 0 20 км ясно +15.0 +12.4 84 +15 +15 1009.7 973.6
21 22.06 штиль 0 20 км ясно +13.4 +11.1 86 +13 +14 1010.5 974.4
00 23.06 штиль 0 20 км ясно +18.0 +12.8 72 +18 +32 опасность
простуды
1010.5 974.4 +13.0
03 23.06 штиль 0 20 км ясно +25.0 +16.6 60 +29 +56 опасность
солнечного
удара
1008.6 972.7
06 23.06 штиль 0 20 км ясно +29.5 +16.6 46 +33 +53 опасность
солнечного
удара
1007.2 971.3
09 23.06 штиль 0 20 км 4/4 600 м
[Sc diur, vesp]
+30.0 +17.0 46 +34 +36 очень
душно
1006.8 970.8
12 23.06 штиль 0 20 км ясно +24.8 +17.4 63 +29 +29 душно 1008.2 972.2 +31.0
15 23.06 штиль 0 20 км ясно +19.8 +15.7 77 +22 +22 комфорт 1009.7 973.7
18 23.06 штиль 0 20 км ясно +16.6 +14.3 86 +16 +16 1010.4 974.4
21 23.06 штиль 0 20 км ясно +14.8 +12.2 84 +15 +15 1011.9 975.8
00 24.06 штиль 0 20 км ясно +21.0 +15.3 70 +24 +38 комфорт 1012.2 976.1 +14.3
03 24.06 штиль 0 20 км ясно +27.5 +19.0 60 +33 +60 опасность
солнечного
удара
1010.8 974.7
06 24.06 штиль 0 20 км ясно +31.0 +18.7 48 +36 +56 опасность
солнечного
удара
1009.4 973.4
09 24.06 штиль 0 20 км ясно +30.7 +18.3 48 +36 +39 очень
душно
1009.2 973.2
12 24.06 штиль 0 20 км ясно +25.4 +17.8 63 +30 +30 душно 1010.4 974.7 +31.5
15 24.06 штиль 0 20 км 10/0
[Ci sp]
+22.2 +17.9 77 +27 +27 душно 1013.1 977.0
18 24.06 штиль 0 20 км ясно +20.4 +17.5 83 +23 +23 комфорт 1013.9 977.7
21 24.06 штиль 0 20 км ясно +17.8 +15.4 86 +18 +19 1015.0 978.8
00 25.06 штиль 0 20 км ясно +23.6 +17.9 70 +28 +41 душно 1015.1 978.9 +17.3
03 25.06 штиль 0 20 км ясно +28.2 +18.9 57 +33 +60 опасность
солнечного
удара
1013.6 977.5
06 25.06 штиль 0 20 км ясно +31.0 +19.2 49 +36 +56 опасность
солнечного
удара
1010.8 974.7

 

Местоположение метеостанции Канге (КНДР): широта 40.97 долгота 126.60 высота над уровнем моря 306 м.

В архиве по умолчанию представлена погода в Канге за последнюю неделю. Архивные данные за месяц целиком и за предыдущие месяцы, начиная с января 2011 года, Вы можете получить, выбрав интересующий диапазон дат из раскрывающегося списка и нажав кнопку "Ввод!".


*Определитесь, кто Вы:
робот инопланетянин человек

Внимание! Время в таблицах - всемирное. Для получения местного времени необходимо прибавить поправку, которая равна 9 ч.

Смотрите также архив погоды в соседних городах и на ближайших метеорологических станциях:

Погода в Цзиане (Цзяньси, Китай) (40 км)
Погода в Джангджине (КНДР) (86 км)
Погода в Линьцзяне (Гирин, Китай) (87 км)
Погода в Чунгане (КНДР) (93 км)
Погода в Хыйчхоне (КНДР) (94 км)
Погода в Пунгсане (КНДР) (131 км)
Погода в Чанбае (Гирин, Китай) (137 км)
Погода в Хесене (КНДР) (139 км)
Погода в Хамхыне (КНДР) (141 км)
Погода на Плотине Сапунг (КНДР) (152 км)

Пояснения к столбцам:

Ветер - указаны скорость ветра в м/с - средняя за 10 мин, порывы в срок и между сроками (в фигурных скобках) и направление, откуда дует ветер: С - северный, СВ - северо-восточный, В - восточный, ЮВ - юго-восточный, Ю - южный, ЮЗ - юго-западный, З - западный, СЗ - северо-западный.
Видимость - горизонтальная дальность видимости в метрах или километрах. При видимости от 1 до 10 км при отсутствии осадков обычно наблюдается дымка, при ухудшении видимости до 1 км и менее - туман. В сухую погоду видимость может ухудшаться дымом, пылью или мглою.
Явления - указаны атмосферные явления, наблюдавшиеся в срок или в последний час перед сроком; фигурными скобками обозначены явления, наблюдавшиеся между сроками (за 1-3 часа до срока); квадратными скобками обозначены град или гололедные отложения с указанием их диаметра в мм.
Облачность - указаны через наклонную черту общая и нижняя облачность в баллах и высота нижней границы облаков в метрах; квадратными скобками обозначены формы облаков: Ci - перистые, Cs - перисто-слоистые, Cc - перисто-кучевые, Ac - высококучевые, As - высокослоистые, Sc - слоисто-кучевые, Ns - слоисто-дождевые, Cu - кучевые, Cb - кучево-дождевые. Подробнее классификацию облаков см. в Атласе облаков (PDF).
T - Температура воздуха - температура, измеренная на высоте 2 м над землей.
Td - Температура точки росы - температура, при понижении до которой содержащийся в воздухе водяной пар достигнет насыщения.
f - Относительная влажность воздуха - влажноcть воздуха, измеренная на высоте 2 м над землей.
Te - Эффективная температура - температура, которую ощущает одетый по сезону человек в тени. Характеристика душности погоды. При расчете учитывается влияние влажности воздуха и скорости ветра на теплоощущения человека.
Tes - Эффективная температура на солнце - температура, которую ощущает человек, с поправкой на солнечный нагрев. Характеристика знойности погоды. Зависит от высоты солнца над горизонтом, облачности и скорости ветра. Ночью, в пасмурную погоду, а также при ветре 12 м/с и более поправка равна нулю.
P - Атмосферное давление - приведенное к уровню моря атмосферное давление.
Po - Атмосферное давление - измеренное на уровне метеостанции атмосферное давление.
Tmin - Минимальная температура - минимум температуры воздуха на высоте 2 м над землей.
Tmax - Максимальная температура - максимум температуры воздуха на высоте 2 м над землей.
R - Количество осадков - Количество выпавших осадков за период времени, мм. При наведении курсора мыши на число - период времени, за который выпало указанное количество осадков.
R24 - Количество осадков - Количество выпавших осадков за 24 часа, мм.
S - Снежный покров - Высота снежного покрова, см. При наведении курсора мыши на число - состояние снежного покрова и степень покрытия местности в баллах.